Flag Weather past 2 weeks in Belleville, Ontario, Canada

Now
46 °F

Overcast.


Feels Like: 42 °F
Forecast: 39 / 45 °F
Wind: 8 mph from Southwest

Location: Trenton

Current Time: Nov 23, 2014 at 3:05:42 PM

Latest Report: Nov 23, 2014 at 2:00 PM


Visibility: 15 mi

Pressure: 29.97 "Hg

Humidity: 82%

Dew point: 41 °F

Location of BellevilleLocation

Historic Weather in Belleville — Graph

°F

Belleville temperature yesterday

Maximum temperature yesterday: 43 °F (at 8:00 PM)
Minimum temperature yesterday: 23 °F (at 12:00 AM)
Average temperature yesterday: 35 °F

Past Weeks' High & Low Weather Summary

 TemperatureHumidityPressure
High63 °F (Nov 11, 2:00 PM)100% (Nov 11, 3:00 AM)30.41 "Hg (Nov 11, 3:00 AM)
Low14 °F (Nov 21, 7:00 AM)45% (Nov 11, 2:00 PM)29.50 "Hg (Nov 17, 4:00 PM)
Average34 °F77%29.97 "Hg
* Reported Nov 8 2:00 PM — Nov 23 2:00 PM, Belleville, Weather by CustomWeather, © 2014

Note: Actual official high and low records may vary slightly from our data, if they occured in-between our weather recording intervals... More about our weather records

Advertising

Belleville weather history for previous 24 hours

 ConditionsComfort  
Time TempWeatherWind HumidityBarometerVisibility
2:00 PM
Nov 23
46 °FOvercast.8 mph82%29.97 "Hg15 mi
1:00 PM46 °FMore clouds than sun.8 mph82%30.01 "Hg15 mi
12:00 PM48 °FMostly cloudy.6 mph76%30.01 "Hg15 mi
11:00 AM46 °FPartly sunny.6 mph82%30.02 "Hg15 mi
10:00 AM45 °FPartly sunny.8 mph87%30.03 "Hg12 mi
9:00 AM43 °FPartly sunny.7 mph87%30.02 "Hg7 mi
8:58 AMN/APartly sunny.7 mphN/AN/A7 mi
8:00 AM41 °FFog.5 mph93%30.02 "Hg5 mi
7:00 AM41 °FFog.6 mph93%30.01 "Hg4 mi
6:57 AMN/AFog.7 mphN/AN/A4 mi
6:00 AM41 °FFog.6 mph93%29.98 "Hg4 mi
5:00 AM43 °FFog.8 mph93%29.97 "Hg5 mi
4:46 AMN/AFog.8 mphN/AN/A5 mi
4:00 AM43 °FOvercast.8 mph93%29.96 "Hg7 mi
3:00 AM45 °FOvercast.12 mph87%29.96 "Hg7 mi
2:00 AM45 °FOvercast.15 mph87%29.95 "Hg7 mi
1:00 AM45 °FSprinkles. Fog.13 mph100%29.94 "Hg6 mi
12:00 AM43 °FSprinkles. Fog.14 mph100%29.94 "Hg4 mi
11:00 PM
Nov 22
43 °FSprinkles. Fog.13 mph100%29.93 "Hg5 mi
10:00 PM43 °FSprinkles. Fog.9 mph93%29.93 "Hg2 mi
9:00 PM43 °FSprinkles. Fog.9 mph93%29.93 "Hg4 mi
8:00 PM43 °FFog.14 mph93%29.93 "Hg4 mi
7:00 PM41 °FLight rain. Fog.15 mph100%29.94 "Hg4 mi
6:00 PM41 °FLight rain. Low clouds.16 mph100%29.93 "Hg8 mi
5:00 PM39 °FLight rain. Low clouds.16 mph100%29.93 "Hg8 mi
4:00 PM39 °FDrizzle. Low clouds.9 mph93%29.95 "Hg9 mi
3:00 PM37 °FOvercast.9 mph93%29.96 "Hg15 mi
Weather by CustomWeather, © 2014

See weather overviewHow to use our weather pages